Date,TemperatureHighF,TemperatureAvgF,TemperatureLowF,DewpointHighF,DewpointAvgF,DewpointLowF,HumidityHigh,HumidityAvg,HumidityLow,PressureMaxIn,PressureMinIn,WindSpeedMaxMPH,WindSpeedAvgMPH,GustSpeedMaxMPH,PrecipitationSumIn
2013-3-1,55.0,42.3,29.0,28.0,22.1,14.0,54,45,34,0.00,40.00,0,0,0,0.00
2013-3-2,61.0,48.7,42.0,27.0,24.6,21.0,44,39,28,0.00,40.00,0,0,0,0.00
2013-3-3,53.0,45.4,40.0,30.0,26.2,23.0,54,47,41,0.00,40.00,0,0,0,0.00
2013-3-4,26.0,19.2,12.0,14.0,9.4,5.0,75,66,50,0.00,40.00,0,0,0,0.00
2013-3-5,26.0,19.0,11.0,17.0,10.4,5.0,76,69,61,0.00,40.00,0,0,0,0.00
2013-3-6,33.0,25.7,17.0,23.0,17.2,11.0,83,70,57,0.00,40.00,0,0,0,0.00
2013-3-7,36.0,31.4,28.0,23.0,22.0,20.0,78,68,56,0.00,40.00,0,0,0,0.00
2013-3-8,40.0,33.3,28.0,26.0,24.8,22.0,85,71,56,0.00,40.00,0,0,0,0.00
2013-3-9,45.0,36.1,26.0,17.0,14.3,11.0,62,42,29,0.00,40.00,0,0,0,0.00
2013-3-10,54.0,39.7,26.0,19.0,15.5,13.0,60,40,22,0.00,40.00,0,0,0,0.00
2013-3-11,45.0,36.2,28.0,23.0,18.8,14.0,60,49,31,0.00,40.00,0,0,0,0.00
2013-3-12,44.0,32.2,22.0,19.0,16.4,13.0,85,54,32,0.00,40.00,0,0,0,0.00
2013-3-13,66.0,50.0,36.0,27.0,22.0,17.0,46,34,22,0.00,40.00,0,0,0,0.00
2013-3-14,66.0,55.3,47.0,30.0,25.0,22.0,39,31,24,0.00,40.00,0,0,0,0.00
2013-3-15,64.0,51.8,34.0,28.0,23.9,21.0,72,35,23,0.00,40.00,0,0,0,0.00
2013-3-16,48.0,34.0,22.0,26.0,23.2,20.0,91,68,37,0.00,40.00,0,0,0,0.00
2013-3-17,38.0,32.4,20.0,29.0,17.4,6.0,90,57,26,0.00,40.00,0,0,0,0.00
2013-3-18,40.0,25.9,11.0,17.0,9.8,3.0,86,55,21,0.00,40.00,0,0,0,0.00
2013-3-19,34.0,27.3,21.0,22.0,16.7,12.0,88,65,41,0.00,40.00,0,0,0,0.00
2013-3-20,53.0,38.5,24.0,19.0,14.6,10.0,60,40,22,0.00,40.00,21,8,24,0.00
2013-3-21,44.0,37.0,30.0,31.0,16.7,3.0,91,47,23,0.00,40.00,26,14,37,0.00
2013-3-22,31.0,25.5,20.0,24.0,11.5,2.0,85,58,31,0.00,40.00,20,10,27,0.00
2013-3-23,33.0,21.7,13.0,12.0,6.5,1.0,76,54,26,0.00,40.00,14,7,22,0.00
2013-3-24,29.0,19.7,12.0,10.0,6.6,4.0,83,58,36,0.00,40.00,13,7,23,0.00
2013-3-25,44.0,30.0,15.0,11.0,6.2,2.0,68,41,18,0.00,40.00,21,10,26,0.00
2013-3-26,52.0,39.1,30.0,18.0,9.1,2.0,35,29,24,0.00,40.00,16,8,22,0.00
2013-3-27,61.0,43.9,27.0,22.0,16.7,10.0,55,35,22,0.00,40.00,17,7,22,0.00
2013-3-28,64.0,48.8,33.0,27.0,21.6,15.0,53,35,23,0.00,40.00,15,7,18,0.00
2013-3-29,59.0,48.8,38.0,36.0,27.6,19.0,73,45,32,0.00,40.00,19,9,34,0.00
2013-3-30,58.0,47.4,40.0,35.0,25.5,-99.9,75,47,25,0.00,40.00,29,12,37,0.00
2013-3-31,58.0,45.6,37.0,28.0,21.8,17.0,49,39,31,0.00,40.00,26,14,34,0.00